Find Starlink 3851

NORAD ID: 52344 Int'l Des: 2022-045 Owner: SPXS Country: US Constellation: starlink operational
LEOCIRCULAR

現在のビュー

3D地球を読み込み中...

About Starlink 3851

Starlink 3851 (NORAD 52344) is a starlink constellation satellite (v1.5) launched Apr 29, 2022 by SPXS of US. It operates in LEO, CIRCULAR orbit with a mass of 297.00 kg.

次回通過

Passes for default location (London). Set your location on the main map for personalized predictions.

高度履歴

Loading altitude history...

軌道要素

1 52344U 22045P 26262.09705183 .00000733 00000-0 32836-4 0 9991
2 52344 53.1610 42.1746 0001113 88.1055 272.0075 15.34384432245093
Epoch: Sep 19, 2026 • Age: 23 hours

現在のステータス

高度 463.1 km
遠地点 / 近地点 N/A
速度 7.64 km/s
衛星直下点 4.55°N, 159.14°W
打ち上げ日 Apr 29, 2022
運用期間 4.3 years
タイプ internet

技術仕様

分類 Payload
質量 297.00 kg
乾燥質量 275.00 kg
長さ 0.20 m
スパン 9.00 m
形状 ? Box + pan
製造者 SPXS
バスタイプ Starlink
フェーズステータス In Orbit
所有者/国 SPXS/US

Most Searched